Location: Unspecified
(0.0000°N, 0.0000°E)
Time: 10:39:22
(UTC+00:00)

MIDAS 4 DEB - Pass Details

Date: 17 November 2025
Orbit: 3271 x 3959 km, 95.8° (Epoch: 26 July)

Event Time Altitude Azimuth Distance (km) Brightness Sun altitude
Exits shadow 23:39:57 12° 287° (WNW) 6,562 ? -70.7°
Maximum altitude 23:40:44 12° 284° (WNW) 6,572 ? -70.7°
Drops below altitude 10° 23:45:49 10° 267° (W) 6,796 ? -70.8°
Sets 23:56:41 0° 238° (WSW) 7,989 ? -70.6°
